{"data":{"norad_id":41879,"epoch":"2026-05-25T05:02:38.473728Z","epoch_age_seconds":67042,"freshness":"FRESH","line1":"1 41879U 16075A   26145.21016752 -.00000203  00000+0  00000+0 0  9994","line2":"2 41879   0.0093 340.0703 0000534   4.2006 124.0068  1.00277359 34590","mean_motion":1.00277359,"eccentricity":5.34e-5,"inclination_deg":0.0093,"raan_deg":340.0703,"arg_perigee_deg":4.2006,"mean_anomaly_deg":124.0068,"bstar":0,"rev_number":3459,"period_min":1436.0170773943,"perigee_km":35782.780925783,"apogee_km":35787.283952279,"semimajor_km":42163.169439031,"source":"CELESTRAK","updated_at":"2026-05-25T13:38:14.010091Z"}}